Wind_Speed
6 6 6 6 5 5 5 5 5 5 5 5 6 7 7 5 3 3 5 6 8 7 5 3 3 4 5 6 7 10 9 8 13 16 14 12 16 18 19 18 16 16 13 10 8 9 6 6 4 3 6 5 2 0 2 0 1 4 4 4 5 3 4 6 7 6 7 10 10 11 9 8 9 9 7 2 5 9 11 13 12 12 14 15 16 17 19 20
6 6 6 5 5 5 5 5 5 5 5 5 6 6 6 4 2 2 3 5 7 7 5 4 1 3 6 6 5 3 2 3 12 15 13 16 20 19 19 17 15 15 11 7 6 7 5 3 3 4 6 3 2 1 2 1 2 4 4 4 3 5 5 6 7 7 8 10 10 10 7 8 9 8 7 4 9 12 11 12 12 13 15 16 18 19 20 21
6 6 6 5 5 5 5 5 5 5 5 6 6 6 5 3 0 1 2 5 7 7 7 6 4 4 7 8 8 6 5 4 8 12 12 21 21 19 20 17 14 13 7 4 6 5 5 4 4 5 5 3 1 1 2 1 1 2 3 4 3 6 4 6 7 8 7 8 9 9 5 9 10 9 6 3 9 14 12 11 12 13 14 15 16 18 19 21
6 6 5 5 5 5 5 5 5 5 5 6 6 6 5 2 1 1 3 7 8 8 9 7 3 2 5 8 9 7 6 5 5 9 14 24 22 18 19 16 13 9 4 4 5 5 5 5 4 4 3 2 1 2 2 1 1 1 2 3 6 7 4 6 8 8 7 6 7 7 3 7 10 11 9 6 6 10 10 10 11 12 13 14 14 16 18 19
6 6 5 5 5 5 5 5 5 5 6 7 7 6 4 1 2 2 5 7 8 9 11 6 5 5 2 4 8 6 4 3 5 12 21 26 19 16 16 13 11 8 5 4 5 4 5 5 3 2 3 1 2 2 1 3 2 1 2 5 7 7 4 6 7 7 6 6 5 5 5 6 8 11 12 11 8 7 7 8 9 10 11 13 13 15 16 18
6 6 4 5 4 4 4 5 5 7 8 8 8 6 3 3 3 3 5 7 8 10 11 5 5 9 10 7 7 6 2 1 8 17 25 23 13 12 11 11 11 10 7 4 4 4 3 4 3 2 1 2 2 1 3 3 2 2 4 6 5 5 4 4 5 5 5 6 6 5 7 7 9 10 11 13 11 7 6 7 7 8 10 11 12 14 15 16
6 5 4 4 4 4 5 5 6 7 8 8 7 5 4 5 4 3 5 7 9 10 11 5 2 3 6 8 6 4 4 5 12 21 23 17 9 8 8 10 12 10 9 6 5 4 5 5 1 1 0 3 3 3 3 1 2 2 3 5 4 3 3 3 3 3 4 7 6 5 7 7 9 9 9 11 10 7 6 5 6 7 8 10 12 13 14 15
5 4 3 3 4 5 6 6 7 7 8 8 6 5 4 4 3 4 6 8 10 11 12 7 1 4 2 0 2 3 9 9 17 23 21 13 7 7 7 10 11 9 9 10 10 7 5 7 5 3 1 3 3 2 1 1 1 1 3 3 1 1 2 2 2 4 5 6 6 8 9 9 11 10 9 10 7 6 6 5 5 6 8 9 11 12 13 14
5 3 3 4 5 5 5 6 7 7 8 7 6 4 4 3 2 4 7 8 9 9 11 11 6 1 4 5 6 3 9 11 16 20 17 11 8 10 8 8 10 8 10 11 11 9 5 6 5 3 2 4 2 1 0 3 1 3 2 0 2 3 2 2 3 6 5 4 5 8 9 9 8 7 8 9 6 5 5 5 5 5 7 9 10 11 12 13
4 3 4 5 5 5 5 6 7 7 7 6 4 3 2 2 2 4 7 8 8 7 7 10 11 7 5 3 2 5 9 12 15 17 13 10 9 9 8 9 10 8 9 10 11 10 7 6 5 3 2 2 1 2 2 3 2 2 1 2 3 4 3 2 3 6 6 4 3 6 8 6 3 1 3 7 5 4 4 5 5 5 7 8 9 10 11 13
3 3 4 5 5 5 5 6 7 6 6 4 2 1 1 1 2 4 6 7 7 7 6 7 8 8 11 12 7 7 10 11 14 16 11 9 9 9 8 10 10 7 7 9 11 10 7 7 5 2 1 0 2 3 2 2 1 2 2 3 5 3 2 3 3 3 4 3 3 5 8 6 4 3 3 5 3 2 3 4 5 5 6 7 8 9 10 12
3 4 4 4 5 5 6 6 5 4 4 3 1 0 0 1 2 4 7 9 7 6 6 7 9 5 7 13 10 6 10 10 12 15 11 10 10 10 8 8 9 8 7 7 9 10 8 8 6 2 2 1 2 2 3 1 1 2 4 5 7 7 2 2 5 2 3 2 3 5 5 4 5 5 4 4 2 1 3 4 5 5 6 6 7 7 8 11
3 4 5 5 5 5 5 5 4 4 4 3 2 1 1 2 2 4 7 9 7 5 5 6 10 7 5 8 7 7 11 10 13 14 12 11 9 8 9 8 8 8 8 8 7 9 10 9 8 6 3 3 1 1 1 1 1 2 4 4 3 6 3 3 4 4 2 3 3 4 4 2 6 6 4 3 1 1 2 4 5 5 5 5 6 6 7 10
4 5 5 5 5 5 5 5 6 6 6 4 3 3 3 2 2 4 7 10 8 5 4 5 4 3 5 6 4 11 15 11 15 17 15 14 7 4 7 6 7 8 8 7 5 6 7 7 4 4 3 4 3 1 2 3 2 1 2 2 2 2 1 4 3 6 3 2 0 5 6 1 7 5 5 3 1 1 2 4 4 5 5 5 6 6 7 9
4 5 5 5 5 5 6 7 7 8 9 8 4 2 3 2 3 4 6 11 13 9 5 5 4 2 4 6 2 11 17 15 18 18 15 15 10 4 5 5 5 7 8 7 4 3 4 5 3 2 3 2 2 2 4 3 2 3 3 2 5 5 6 3 3 3 6 4 4 5 5 1 7 6 5 3 1 2 2 3 4 5 5 5 6 6 7 8
5 5 4 5 5 5 5 7 10 17 20 18 14 7 2 2 2 3 5 7 13 14 8 5 7 5 4 5 5 10 16 18 18 16 13 13 11 6 4 2 2 3 5 5 3 1 3 3 1 2 5 3 3 4 3 0 3 5 6 5 7 7 8 5 3 3 7 9 6 3 4 1 6 7 5 4 2 2 2 3 3 4 5 5 5 6 6 7
5 5 5 6 5 4 5 8 16 20 22 23 24 21 15 8 2 2 3 2 5 9 10 10 7 2 6 7 8 10 14 17 17 17 15 12 10 9 6 3 1 3 3 1 2 1 3 2 1 0 6 8 9 8 3 4 7 6 6 6 8 9 9 8 3 3 7 11 9 6 5 1 6 8 6 4 3 3 2 2 3 3 4 4 5 5 6 7
5 6 7 7 5 4 6 11 14 12 12 14 17 23 27 24 20 16 10 5 3 2 6 15 9 3 5 10 10 11 15 15 15 18 16 11 9 9 6 3 3 7 6 2 3 4 2 3 3 4 7 9 10 9 6 5 7 6 7 6 7 9 9 10 9 6 9 11 12 10 7 1 7 8 6 6 4 3 3 2 2 2 3 4 5 5 6 7
6 8 9 9 7 6 9 12 10 4 4 5 5 7 11 15 22 25 21 15 9 4 3 10 9 3 4 11 11 15 15 11 10 17 18 13 10 8 5 3 3 5 4 1 7 8 4 4 6 7 8 9 9 8 5 5 7 7 7 6 7 10 8 11 13 7 8 10 11 11 9 5 5 8 7 7 5 4 4 3 2 2 2 3 4 5 6 7
7 9 11 11 10 8 9 10 6 1 5 6 6 4 2 2 7 11 15 16 12 8 6 5 6 5 5 8 12 17 12 7 7 19 22 17 11 8 5 3 2 2 3 1 5 6 4 7 9 7 7 7 7 6 6 5 5 6 7 6 8 10 8 13 14 4 5 8 11 12 11 8 5 9 8 8 7 5 5 3 2 2 2 3 4 5 6 7
8 10 11 12 13 10 7 5 1 3 5 2 2 3 0 1 4 4 4 9 7 5 7 5 4 5 4 5 11 16 7 3 8 19 25 20 8 5 6 5 1 4 4 1 0 4 6 9 8 7 6 6 5 5 7 6 5 5 5 7 8 9 10 16 12 1 3 4 10 15 11 9 7 9 9 9 9 7 5 3 2 2 3 2 4 5 6 7
7 8 10 12 13 12 8 5 4 5 8 10 8 5 4 3 6 6 2 6 6 2 3 4 5 7 4 1 8 14 5 4 12 19 27 23 9 4 7 5 4 6 5 1 2 3 7 9 7 7 6 6 5 5 9 7 6 4 4 7 7 9 12 13 5 1 3 4 10 14 9 10 8 10 10 9 9 6 5 2 2 2 3 3 5 5 6 8
5 6 9 11 11 10 8 9 9 9 10 11 9 6 5 5 7 5 1 4 5 1 2 6 7 11 9 4 10 15 8 10 12 16 24 20 9 6 6 6 7 6 8 8 4 4 6 6 7 6 5 7 4 6 13 9 4 2 4 7 7 11 12 10 6 5 10 9 12 13 9 11 7 9 9 9 8 5 5 4 2 1 3 4 5 6 7 9
6 7 9 10 9 6 6 7 8 10 13 11 9 6 5 5 5 2 1 2 3 2 2 3 3 9 10 4 10 12 7 10 10 14 20 17 8 5 4 5 4 5 7 8 7 9 6 4 6 6 6 6 5 8 12 9 5 1 3 7 9 14 15 13 13 13 14 10 7 8 9 8 6 12 10 8 8 6 6 4 2 1 2 4 5 6 7 10
6 7 10 10 9 4 4 5 6 8 10 8 7 5 5 4 4 1 1 2 3 3 2 1 0 7 8 5 9 7 1 6 10 12 15 13 10 5 1 2 2 5 5 5 4 7 6 3 3 6 4 6 7 6 7 7 8 1 4 9 14 17 19 18 16 13 11 5 3 3 8 7 4 11 11 8 8 8 6 4 1 2 3 5 6 7 9 11
5 6 8 11 9 4 3 2 3 3 4 4 4 3 3 1 4 2 2 2 3 4 4 4 3 8 10 9 12 4 2 4 7 11 15 12 7 2 1 2 1 4 4 5 3 3 4 1 3 6 6 9 8 5 6 6 8 4 5 12 16 18 18 18 16 10 7 7 3 5 5 8 7 6 9 11 10 9 7 4 0 3 4 6 8 9 11 12
3 4 6 9 9 5 1 1 1 1 1 1 1 1 1 0 4 3 3 3 3 4 6 7 5 9 10 10 14 4 2 6 6 10 17 14 7 3 2 5 2 3 3 2 1 2 3 4 4 8 9 9 8 6 8 7 6 5 8 15 18 18 18 17 13 8 7 9 8 6 6 9 10 5 8 12 9 10 9 4 0 3 5 8 10 11 12 15
1 2 4 6 6 5 3 2 1 1 1 1 2 2 1 2 4 2 3 1 4 3 3 4 3 7 9 9 11 8 2 7 6 9 15 13 8 3 2 6 3 4 3 2 1 3 3 5 6 9 9 8 8 8 7 6 5 7 12 16 17 18 18 16 10 8 8 8 6 2 3 8 10 6 5 11 9 10 9 3 1 4 7 10 12 13 15 18
1 2 4 5 5 5 3 1 1 2 1 1 2 2 1 2 3 3 3 1 3 2 1 3 3 6 11 8 8 10 4 5 4 8 13 9 9 4 2 4 3 3 4 2 4 2 1 3 3 5 7 7 9 10 5 5 5 9 15 16 16 15 15 12 7 8 8 7 6 10 12 9 9 11 6 5 7 6 5 2 2 6 10 12 13 15 17 18
2 2 4 5 4 3 3 0 1 2 2 2 3 2 2 2 2 3 1 1 3 2 0 3 3 5 11 8 6 9 7 5 5 7 7 5 7 7 3 0 3 3 2 4 6 3 2 1 2 2 5 5 10 10 4 4 7 11 15 14 13 11 8 6 6 6 7 7 8 15 18 14 9 11 9 1 1 2 3 2 5 8 11 13 14 15 19 19
3 4 5 5 3 3 3 1 2 2 2 3 4 1 2 2 1 1 2 2 2 3 1 3 4 4 9 7 4 9 7 5 7 8 8 6 8 11 7 2 3 3 1 4 4 3 4 3 1 2 2 6 9 10 3 5 8 9 10 12 11 8 4 3 3 5 6 8 11 17 21 17 10 10 4 4 5 6 5 5 7 10 14 15 15 16 18 17
6 6 5 4 3 3 2 2 2 3 4 3 3 2 3 1 3 2 2 1 2 3 3 2 4 6 7 3 3 8 5 4 8 6 6 7 7 10 9 6 6 3 3 6 5 3 3 4 3 4 1 6 8 9 3 3 6 7 9 10 9 8 6 4 5 6 7 11 14 19 21 14 10 8 4 5 6 7 5 5 8 13 17 18 17 17 15 15
12 9 7 7 5 3 0 3 3 4 5 3 3 2 3 0 4 2 1 3 2 3 2 2 4 7 6 4 6 7 2 2 7 4 2 5 5 5 7 9 8 5 3 5 7 7 1 4 4 2 1 4 6 7 6 5 7 8 8 9 8 7 8 7 7 7 9 13 16 20 17 10 9 7 3 5 5 6 3 5 10 15 18 19 19 19 18 19
15 13 11 11 10 8 4 2 4 3 4 3 3 2 1 3 3 1 1 3 2 3 2 2 5 6 3 1 4 5 1 2 5 4 3 4 5 5 5 9 11 7 4 5 3 5 6 1 2 2 2 5 6 3 4 8 7 4 5 6 6 6 6 7 7 8 11 14 17 17 11 8 9 5 4 6 6 4 2 8 14 18 20 21 20 21 22 23
14 16 17 17 15 12 7 1 2 1 2 3 2 1 4 3 1 1 1 2 2 3 3 1 4 5 0 2 2 2 2 1 3 4 5 5 5 5 5 6 11 9 4 4 2 3 9 5 3 3 1 5 7 1 2 7 5 4 5 4 6 7 6 7 8 11 14 13 12 10 6 8 9 3 6 5 2 1 7 14 19 20 21 21 19 21 24 24
9 14 18 21 21 16 9 4 2 1 2 3 1 5 4 2 1 2 2 2 2 4 5 2 2 4 4 2 1 4 2 1 4 3 3 5 5 6 5 4 6 8 5 4 3 3 6 7 3 1 1 3 5 0 1 4 4 5 5 5 8 9 6 6 9 11 12 12 9 8 9 10 10 3 5 3 3 8 15 20 22 22 24 23 22 24 26 26
4 6 11 20 23 16 9 7 3 1 2 1 5 5 3 2 3 3 2 2 1 3 5 2 2 4 5 4 4 8 6 2 4 5 1 3 2 5 7 4 3 5 6 3 2 2 3 9 9 4 1 3 3 1 1 0 4 6 4 6 9 7 4 3 8 9 10 11 9 10 13 13 12 8 2 6 13 16 20 23 24 25 26 25 25 27 28 27
5 2 4 17 23 14 7 6 5 3 1 5 7 4 1 2 2 2 2 2 1 2 3 3 3 2 3 4 4 6 8 5 5 6 3 3 2 4 6 4 3 5 6 3 3 2 2 7 4 2 3 4 2 2 1 2 1 3 1 3 4 3 3 5 7 8 10 13 10 12 16 13 10 10 9 14 18 20 23 25 25 27 26 25 28 30 29 28
5 2 2 16 19 11 8 5 3 2 4 7 5 3 2 2 2 3 3 3 2 2 3 3 2 1 1 4 4 4 5 4 6 5 3 4 3 4 6 4 4 7 7 4 4 4 3 5 1 0 7 9 3 2 5 3 2 2 2 1 3 3 5 5 6 7 9 13 13 15 15 10 9 10 10 14 19 23 27 27 25 26 26 27 28 28 27 27
3 1 3 15 13 8 12 9 3 4 6 5 3 2 2 2 3 4 4 4 2 2 3 2 1 2 2 2 2 2 3 3 4 4 4 5 4 4 7 6 6 9 9 5 3 4 3 4 5 7 10 10 3 3 6 7 4 3 4 4 4 4 4 5 6 6 7 11 12 14 14 10 9 8 8 17 23 27 30 29 25 24 28 30 29 28 27 26
2 1 3 14 11 4 7 7 6 6 4 4 4 3 2 1 2 3 3 3 2 1 2 2 2 3 3 2 1 2 4 3 3 3 3 5 5 4 5 5 6 8 8 5 2 3 4 4 7 9 9 8 5 3 2 4 4 5 6 4 3 4 6 7 8 5 6 10 11 13 15 11 6 4 10 20 25 28 31 28 24 25 31 32 30 29 29 26
2 2 4 13 11 6 5 5 5 4 3 4 3 3 2 2 2 2 2 0 1 0 0 1 2 2 2 3 2 2 4 3 3 4 3 5 6 5 5 5 6 5 4 4 3 2 2 4 6 8 8 7 4 4 3 2 3 3 1 1 1 3 4 6 9 9 9 11 12 13 15 12 6 9 16 23 26 29 28 25 25 27 30 31 30 30 29 27
2 3 6 16 11 3 4 7 3 4 5 3 1 2 3 2 2 1 1 0 0 1 1 0 1 1 1 3 2 3 5 3 2 3 3 4 4 4 5 6 6 4 3 4 4 2 1 3 6 8 7 4 3 5 4 2 3 3 1 1 2 2 2 4 8 9 9 11 12 11 13 12 9 14 19 24 29 28 23 24 28 28 27 29 31 30 28 28
2 2 4 16 12 0 1 5 4 3 4 2 2 4 2 2 3 1 1 2 1 1 2 2 1 1 2 2 2 3 5 3 2 3 3 3 3 2 3 6 6 5 4 3 4 4 2 3 7 8 8 7 4 2 2 2 4 7 7 5 4 4 2 5 8 9 9 11 13 13 13 13 14 19 24 27 30 27 23 26 30 29 27 27 28 28 28 28
1 2 1 13 19 9 2 2 3 5 5 4 5 3 1 2 3 2 2 3 2 2 2 1 1 2 1 1 2 1 3 2 2 2 1 2 2 2 2 5 5 4 4 1 3 4 4 3 5 6 7 9 9 7 9 9 8 8 10 10 5 3 2 6 9 9 9 13 15 12 14 19 24 26 29 29 26 25 27 31 31 29 29 29 28 28 28 27
0 2 1 5 11 9 3 2 3 5 5 3 4 2 1 3 2 1 2 1 1 2 2 1 1 2 2 2 2 1 2 2 0 1 1 1 2 2 1 3 3 3 4 4 4 3 3 1 5 7 6 8 9 12 14 13 12 11 13 15 11 2 3 4 8 9 12 16 15 13 17 27 30 30 29 26 24 26 29 32 32 30 30 30 29 29 28 27
1 2 2 1 2 4 4 3 4 3 2 0 1 2 2 3 3 1 1 1 1 0 1 0 2 2 2 4 3 2 5 2 2 2 1 1 1 2 1 2 2 3 3 4 4 3 4 1 5 6 8 10 13 17 17 14 14 15 15 14 13 6 2 4 8 11 15 15 15 19 26 31 31 31 29 24 25 29 31 31 31 31 30 29 28 30 31 30
2 2 1 2 1 2 2 3 3 4 4 2 1 2 2 3 3 1 0 0 1 1 2 1 3 4 3 4 3 3 7 5 1 2 2 0 1 2 3 2 2 4 4 3 6 4 3 1 3 4 10 13 15 16 15 14 13 15 14 12 11 10 9 9 11 13 14 14 18 27 34 33 29 28 26 25 28 31 31 31 31 31 31 30 31 33 33 31
2 4 1 2 1 3 2 2 2 3 4 3 2 2 2 3 3 1 0 1 1 1 1 1 3 3 1 3 3 2 4 4 2 0 2 1 1 1 1 2 2 5 6 4 4 2 1 2 3 4 11 14 12 12 15 15 13 13 10 6 7 11 11 12 14 15 16 17 21 29 34 32 25 22 24 26 29 29 28 29 30 30 32 33 34 35 32 29
1 3 2 2 4 4 2 2 2 1 3 1 1 2 2 2 2 1 0 2 1 1 2 2 3 2 1 1 2 1 2 5 5 3 1 1 0 1 2 2 1 4 6 4 3 3 4 4 3 4 8 10 10 14 17 15 12 11 6 2 8 13 12 12 14 16 17 20 24 28 29 24 17 20 26 28 28 28 29 31 31 30 33 35 36 35 32 29
3 3 3 4 4 2 2 1 2 1 2 2 2 2 1 2 2 0 1 1 2 2 3 3 2 0 2 1 1 2 3 5 5 3 3 3 3 3 3 4 3 3 4 3 2 3 6 5 4 3 5 7 11 18 22 17 9 5 2 5 10 13 14 14 14 15 18 23 27 27 22 16 16 24 29 29 30 31 31 32 30 29 33 36 35 33 31 30
5 4 1 2 3 2 2 1 1 1 2 3 3 2 1 2 1 1 1 1 0 1 2 4 4 2 2 2 2 4 4 4 3 3 3 4 6 6 5 6 4 2 3 3 1 3 5 5 5 5 5 8 12 18 21 16 6 1 1 6 12 14 17 18 16 18 21 21 21 19 16 18 24 29 31 31 31 31 29 29 28 28 31 32 30 29 29 30
Wind_Direction
113 115 105 97 78 60 55 53 54 53 57 48 37 30 27 41 68 75 61 49 42 44 50 70 151 177 163 141 106 91 82 69 61 50 47 19 350 348 348 345 338 339 339 332 334 322 287 249 253 281 268 236 223 234 166 201 267 250 251 258 277 316 2 12 357 353 334 320 330 334 348 350 352 16 352 321 55 36 48 46 34 39 36 29 24 14 13 15
118 113 100 90 68 55 52 49 49 46 44 33 22 18 19 28 64 77 50 41 32 25 20 8 289 227 202 191 190 138 102 58 54 50 34 360 347 346 345 345 339 336 336 327 336 333 314 299 302 282 259 222 146 175 185 162 232 252 270 263 294 17 31 27 5 358 338 322 325 329 4 31 13 8 340 348 54 40 38 36 24 31 29 23 21 17 19 20
116 107 95 78 61 53 49 44 38 33 28 18 5 359 3 11 86 113 37 29 18 11 5 350 331 256 223 220 217 213 254 274 34 37 11 348 341 342 343 343 341 337 338 321 322 322 312 306 291 278 250 224 137 194 202 168 238 243 276 269 28 20 23 48 15 0 349 331 330 334 25 58 35 16 352 2 59 47 36 25 17 24 19 15 19 16 18 21
112 102 86 67 58 50 45 37 29 19 10 357 345 343 348 357 171 108 34 21 15 12 8 2 3 313 238 236 224 217 256 257 18 10 345 338 333 337 340 344 348 349 354 313 307 297 286 280 271 276 248 216 119 195 193 106 317 254 293 324 32 4 350 46 20 11 2 336 334 339 25 75 56 37 27 30 60 51 37 27 21 20 16 13 15 15 18 21
110 95 76 64 55 47 40 29 17 3 358 351 347 351 354 74 127 71 32 19 17 16 16 34 63 36 358 249 213 196 239 244 13 349 335 334 331 335 342 355 1 8 9 308 299 282 265 265 246 249 241 181 130 200 121 79 311 274 54 35 35 357 345 32 26 28 2 342 354 15 59 74 68 52 42 50 64 53 31 26 24 22 20 17 18 19 20 23
106 88 73 66 51 42 30 15 9 2 3 3 4 11 35 95 100 62 30 20 19 17 22 49 92 65 58 74 142 170 210 60 2 339 334 336 338 343 354 11 13 22 8 305 288 283 278 273 226 232 222 112 56 53 73 75 295 279 87 65 38 358 349 20 35 42 4 19 41 66 89 90 88 72 55 60 65 58 39 28 25 28 28 26 28 27 26 28
101 86 75 61 40 31 21 13 13 9 13 15 20 35 71 98 95 54 29 22 16 14 25 34 145 87 65 75 115 129 67 40 354 338 337 343 354 2 11 16 19 23 5 348 345 345 3 350 341 326 265 108 37 37 60 69 290 299 85 58 24 360 348 9 51 73 40 47 63 101 113 99 94 88 71 68 64 56 50 37 37 41 40 38 37 35 33 31
99 86 70 46 32 26 22 22 19 16 22 25 37 60 90 102 87 44 23 18 14 13 24 26 228 239 267 7 237 74 51 6 343 341 344 355 17 25 20 12 13 14 12 21 11 359 9 9 20 329 303 83 27 32 60 220 204 29 66 39 18 69 10 29 114 115 77 69 97 109 111 102 98 96 76 66 59 50 49 47 50 51 51 46 42 38 35 33
97 83 54 39 32 27 30 27 21 22 28 36 55 83 105 89 63 37 19 12 13 22 33 41 61 282 275 260 257 36 29 347 340 343 354 21 38 30 23 13 7 11 28 31 20 19 24 9 10 336 33 75 10 42 230 245 98 67 73 132 135 105 51 61 130 130 96 84 128 121 120 119 110 107 78 61 46 41 49 53 55 53 53 47 43 39 34 33
95 69 45 38 32 34 34 27 27 30 34 43 65 91 88 57 43 25 13 11 16 33 42 42 50 34 359 307 246 57 8 341 348 348 5 33 31 25 31 30 13 16 39 38 29 27 27 20 9 331 28 91 88 63 304 296 60 98 171 178 147 110 82 89 108 130 120 94 144 135 125 117 83 160 90 61 35 34 53 58 55 48 49 45 45 41 34 33
78 53 43 39 37 37 32 31 35 38 37 42 58 84 49 33 28 15 12 19 26 37 36 28 32 39 46 44 59 51 355 339 352 353 5 19 21 27 37 40 22 13 36 45 39 23 13 14 2 296 285 118 124 86 37 7 60 167 169 179 185 165 91 107 92 117 152 117 144 145 126 114 65 60 78 48 16 34 51 57 56 46 46 43 43 43 37 34
64 52 45 40 38 37 36 35 36 37 30 29 52 52 348 37 27 23 29 30 29 32 30 36 39 38 51 50 53 28 351 347 352 354 4 7 17 35 44 49 35 21 27 51 48 28 15 353 342 45 38 285 177 105 68 67 254 190 192 204 193 200 215 106 78 53 215 129 132 181 167 143 97 79 77 45 14 86 66 60 56 47 48 42 41 42 39 34
65 55 46 44 43 40 36 37 43 32 3 6 42 53 58 59 41 38 34 28 25 30 35 53 57 46 38 55 58 17 4 2 359 3 16 11 7 33 42 45 46 37 42 64 61 37 28 5 12 58 23 310 152 67 37 174 239 204 220 246 202 207 209 104 58 355 251 118 107 229 251 145 107 90 83 61 33 128 91 68 56 52 52 44 42 40 42 38
65 54 50 54 48 38 39 49 39 14 359 15 37 58 66 73 67 55 40 34 31 32 33 41 55 41 47 75 73 17 12 11 10 11 19 17 5 35 41 41 58 55 55 67 70 51 33 356 12 85 28 357 70 69 246 186 193 232 234 277 358 315 359 90 66 357 8 101 345 270 281 143 122 110 96 81 87 148 97 74 59 52 50 44 45 38 41 41
65 59 60 55 42 44 53 46 38 46 56 55 56 72 77 97 89 57 47 49 48 42 23 21 1 308 69 86 47 3 8 13 14 9 8 11 5 18 34 38 63 58 55 57 55 45 3 333 346 60 45 66 150 232 232 190 144 28 7 322 5 355 338 23 118 39 9 341 316 302 301 134 133 128 111 105 155 171 108 78 63 52 48 40 41 35 35 36
69 63 55 36 35 50 52 57 80 85 79 72 72 76 105 141 96 52 59 69 61 49 35 15 351 343 60 54 343 349 6 10 6 2 360 3 5 4 349 333 63 52 46 41 30 16 308 331 22 3 29 53 345 326 247 162 30 22 11 351 357 345 325 341 122 96 2 336 327 321 305 316 134 135 126 125 159 179 144 87 65 52 47 36 35 32 26 25
70 61 46 32 35 41 57 95 103 92 80 75 72 71 76 82 98 72 44 69 57 44 42 23 341 353 69 23 343 348 357 358 357 360 358 353 4 7 341 293 291 307 296 299 313 283 272 303 172 62 31 39 15 3 25 19 358 354 360 352 347 335 324 334 352 43 4 338 324 305 285 323 123 140 143 142 165 178 154 99 75 56 46 38 33 26 21 19
70 63 53 48 53 63 104 127 119 96 79 75 73 74 74 70 73 68 43 24 2 349 43 21 356 153 63 9 356 345 337 340 350 359 359 354 356 360 352 329 295 283 269 234 357 348 321 349 42 57 34 31 26 24 36 10 333 327 338 336 335 329 323 328 333 358 6 337 317 306 284 209 137 157 158 154 171 170 148 117 93 60 48 40 31 23 19 16
75 70 64 65 75 92 129 148 142 107 45 32 40 72 79 70 69 61 45 44 48 43 54 8 3 111 31 357 352 339 324 311 340 5 7 1 342 327 324 322 303 295 278 102 37 17 8 35 38 35 26 17 22 26 15 337 312 309 305 299 313 318 320 326 327 354 12 331 308 309 300 274 173 175 170 163 175 168 155 136 105 66 50 35 26 23 13 10
83 77 70 70 80 103 139 158 164 311 320 320 319 310 208 123 66 52 38 49 58 55 68 20 16 73 29 357 350 346 332 287 354 18 8 353 322 301 326 317 263 34 39 40 38 24 17 52 47 22 13 4 7 4 339 319 303 296 287 293 311 316 322 322 321 3 38 335 304 306 301 281 218 183 175 171 181 178 167 150 115 62 41 32 16 15 6 4
94 82 69 67 76 94 126 157 211 353 4 6 321 325 327 27 56 85 54 65 68 42 62 42 17 57 15 334 345 348 338 276 14 20 7 355 321 282 344 341 256 71 49 297 42 50 39 55 47 11 360 343 339 327 315 305 288 283 297 322 326 324 322 313 312 7 36 338 295 300 294 269 232 188 178 178 189 186 168 157 121 60 34 29 10 7 358 354
106 81 60 59 69 79 88 87 66 63 71 80 79 70 73 63 100 129 139 90 80 345 47 35 27 41 5 283 345 337 330 357 7 15 5 358 10 19 348 360 63 54 27 328 197 84 56 57 32 2 346 312 287 307 328 317 276 265 323 340 331 329 323 310 305 144 308 296 287 298 295 278 247 183 183 188 189 180 158 153 116 58 18 16 1 356 349 347
105 68 47 50 60 67 76 80 77 77 80 83 75 75 103 111 127 148 229 96 92 329 31 30 31 28 11 32 356 343 23 27 360 6 360 356 21 26 347 16 54 49 34 30 45 65 59 51 15 344 318 310 307 357 356 338 280 251 356 349 328 327 327 311 308 300 290 282 284 295 289 280 246 175 190 191 181 173 164 169 132 76 14 10 352 349 348 342
90 61 46 40 38 44 74 81 74 72 74 83 82 91 134 142 148 160 303 121 91 75 81 39 36 26 13 6 344 343 44 44 9 1 358 360 359 327 345 14 21 57 45 22 56 81 68 42 358 311 277 305 334 12 9 347 321 65 45 358 325 319 318 302 302 306 297 278 260 278 284 276 196 179 197 185 180 183 176 183 159 77 14 5 349 345 343 337
89 62 46 31 22 41 98 68 58 72 70 74 82 101 140 161 203 238 295 194 55 42 104 127 96 22 2 324 343 340 25 44 28 4 357 4 351 317 31 349 329 42 29 348 55 87 62 46 328 305 298 339 352 9 13 346 325 338 69 358 323 312 311 300 302 310 304 293 172 203 289 301 188 195 196 171 182 193 181 187 191 15 8 3 350 342 340 335
90 59 42 26 26 59 138 61 44 74 62 65 81 129 141 189 219 208 269 213 54 11 354 4 343 4 358 340 349 335 194 28 23 9 5 9 357 286 359 356 23 39 10 350 30 91 47 38 279 313 345 6 8 10 15 353 322 320 19 344 315 306 304 296 303 307 296 310 282 199 262 299 298 249 192 171 188 191 180 185 189 6 4 357 347 342 341 337
88 43 27 25 32 44 92 79 59 30 28 94 106 129 109 148 171 144 264 233 64 360 342 358 338 355 1 346 348 353 150 337 335 18 11 2 346 265 342 21 37 46 30 324 3 77 13 3 4 359 3 14 8 356 2 349 316 326 347 326 306 305 302 294 300 287 275 303 284 217 228 277 303 309 167 172 192 187 184 202 18 10 355 352 349 346 340 335
93 3 358 9 18 21 37 91 92 35 30 134 140 130 149 183 159 167 269 257 31 341 339 3 340 358 350 334 5 46 77 322 334 9 353 350 355 296 28 34 8 25 23 272 355 58 5 10 22 7 8 16 353 342 346 321 302 324 324 307 296 294 288 287 288 268 279 301 287 291 313 288 299 311 167 167 199 204 193 199 28 4 353 355 352 346 341 336
44 347 343 343 339 357 27 86 165 190 175 162 153 141 155 158 178 247 263 130 14 344 156 359 346 357 341 329 30 49 33 360 12 338 330 355 23 11 55 34 342 337 348 6 52 69 53 19 345 350 15 6 332 332 326 290 299 316 310 299 291 281 267 268 267 265 287 286 290 341 346 318 302 306 292 187 211 219 182 163 19 4 359 357 352 344 340 338
28 333 320 326 315 322 333 296 193 188 165 168 169 147 170 180 220 251 328 42 359 6 146 1 352 331 344 359 44 28 18 28 357 322 334 7 17 23 82 184 288 252 259 73 82 111 124 9 280 357 21 342 314 310 285 257 285 304 311 311 308 298 272 249 246 272 295 289 308 336 336 325 306 300 307 285 150 79 96 32 5 5 359 352 347 342 336 335
2 342 322 321 294 283 298 240 191 191 163 170 174 156 205 215 283 277 63 34 322 354 360 14 11 341 0 22 23 359 9 28 356 352 12 16 12 20 36 9 316 271 277 58 75 127 166 199 211 127 353 337 320 305 260 221 272 305 329 330 326 325 315 248 265 309 311 306 321 330 328 322 300 295 332 99 109 88 65 15 1 351 345 342 342 342 337 335
23 9 354 344 306 280 269 201 195 182 167 174 180 213 242 222 31 30 45 344 290 2 20 12 4 353 351 353 353 352 351 13 9 12 13 14 29 29 34 27 348 323 13 11 351 337 181 165 115 146 232 348 335 323 333 224 288 334 346 342 342 343 348 334 326 340 318 302 312 322 323 314 289 308 27 115 130 101 65 18 360 344 340 339 339 342 341 339
42 32 29 28 25 20 22 186 172 171 174 173 189 236 256 162 56 52 343 340 349 18 13 289 321 327 312 313 360 353 309 2 6 5 358 15 48 66 66 45 7 330 332 342 338 340 3 134 116 143 147 8 344 337 354 334 330 351 353 353 356 346 341 330 323 327 309 299 306 314 314 298 290 318 48 99 102 101 78 13 0 347 342 341 339 341 342 340
46 44 44 41 40 37 36 140 142 158 178 189 225 248 51 67 72 109 330 358 16 356 338 314 316 307 292 5 13 346 321 75 16 1 6 21 44 51 48 35 16 354 307 316 350 346 329 334 69 13 3 10 4 12 350 318 313 344 356 353 353 344 326 309 314 320 307 300 305 308 303 300 315 343 78 86 98 117 45 5 357 349 345 342 339 341 341 337
40 41 41 36 31 24 19 71 173 170 182 215 242 50 67 77 120 175 23 6 5 340 335 340 304 295 309 109 108 25 10 46 18 18 33 36 44 31 7 9 10 2 324 323 18 345 319 320 64 53 4 1 8 86 271 307 309 338 338 342 347 336 310 286 288 303 302 298 302 305 295 302 320 14 93 92 115 34 1 355 349 348 346 340 337 338 335 330
30 33 33 27 18 10 10 7 265 202 224 251 86 63 53 63 36 26 24 339 338 330 312 290 305 330 8 16 53 42 28 272 330 345 84 73 59 41 16 5 7 359 346 341 354 357 325 315 339 16 150 41 19 145 274 327 330 326 324 345 332 305 282 287 294 300 303 295 293 302 299 303 314 334 118 134 303 341 353 346 341 342 341 337 335 333 330 329
5 23 29 19 11 3 7 22 6 242 250 320 78 71 36 45 26 19 34 348 337 307 304 329 31 353 353 349 12 7 343 306 332 328 62 80 65 36 12 16 39 1 353 338 319 45 331 296 297 288 290 52 81 141 81 73 315 330 344 346 324 281 228 290 309 310 308 297 292 302 303 307 315 318 358 335 325 337 343 340 339 340 338 335 331 330 328 328
332 306 28 11 4 353 338 2 354 284 234 66 78 89 49 47 34 25 34 353 300 280 319 14 35 351 342 341 358 352 334 338 351 343 13 26 20 30 8 9 45 8 357 311 292 21 324 294 299 166 323 354 153 213 331 158 334 2 357 340 352 323 302 323 320 314 309 302 299 306 306 306 312 321 341 336 330 335 337 338 342 340 337 332 330 329 327 326
324 254 41 1 1 15 20 10 328 312 82 78 80 100 67 63 73 46 18 349 301 296 354 37 17 336 11 342 342 352 343 349 348 344 10 5 5 48 32 5 338 350 352 305 300 348 304 285 330 119 313 315 258 286 337 349 46 103 214 309 49 347 306 314 310 297 302 303 302 311 308 304 320 332 339 334 334 340 338 338 341 337 334 332 328 327 326 326
314 211 34 352 353 40 40 34 36 34 63 72 69 86 66 89 92 57 19 1 340 337 10 28 337 344 4 344 346 3 347 330 335 349 18 8 6 59 48 21 329 331 331 290 276 339 308 265 294 314 318 318 318 14 347 334 345 339 311 336 13 338 311 308 295 283 300 302 302 309 302 301 327 331 329 335 338 339 336 335 337 335 331 329 326 326 326 325
309 132 23 349 348 2 6 26 46 35 63 74 68 79 47 61 94 77 60 8 340 34 16 347 339 352 342 341 21 3 332 314 338 360 22 24 24 42 46 25 338 327 323 296 260 356 347 288 296 315 323 327 350 59 27 340 334 323 324 345 11 350 337 324 309 298 305 301 298 303 296 298 331 342 334 338 336 333 334 335 334 331 328 326 325 326 325 324
353 82 352 343 355 10 17 57 51 18 77 74 57 79 37 20 82 82 100 96 298 334 18 318 346 349 338 346 349 349 340 328 354 11 24 37 35 25 17 1 333 314 310 321 332 13 352 288 296 314 317 326 16 86 85 28 296 266 218 114 15 354 355 333 312 304 304 297 293 296 289 288 328 352 339 335 330 329 335 336 331 327 325 325 325 325 324 324
36 74 355 346 344 320 42 76 75 35 72 78 37 72 33 23 82 98 138 150 281 294 286 351 5 342 15 4 323 342 359 342 351 19 33 47 51 35 6 346 330 319 314 332 344 360 325 303 320 322 316 330 83 110 118 162 251 274 249 71 50 36 355 300 287 291 294 291 297 300 286 285 325 342 333 329 328 330 335 335 329 325 324 325 326 324 324 323
55 116 6 7 13 264 65 72 107 93 86 116 104 85 60 40 48 44 59 37 2 314 324 16 35 335 4 1 300 336 1 355 24 42 32 26 55 83 14 352 341 356 18 5 346 342 340 351 347 338 335 341 351 7 4 282 303 322 323 342 55 79 342 286 276 285 287 292 306 305 288 290 317 330 328 328 330 333 334 331 328 326 325 326 326 324 323 322
80 123 4 17 33 57 73 44 108 122 122 125 103 86 105 92 48 355 26 41 13 336 332 15 23 314 314 322 258 303 1 350 13 46 31 34 87 137 29 356 344 17 44 292 272 306 322 348 10 2 342 333 329 326 325 320 318 314 310 319 343 74 35 316 302 299 299 305 308 295 286 299 313 324 328 329 334 337 333 328 327 326 325 325 325 323 322 321
28 61 39 9 31 50 66 20 57 113 133 134 110 81 35 97 102 349 353 33 71 348 331 359 340 269 260 319 292 292 21 12 53 46 24 39 82 113 4 330 340 26 11 289 254 267 293 326 39 12 315 294 299 294 297 306 308 302 305 312 320 33 104 315 306 304 308 311 302 288 296 306 314 323 329 332 337 335 331 329 327 325 324 324 323 322 321 320
32 60 28 354 51 59 73 46 32 87 117 345 100 91 56 87 112 121 344 23 97 306 290 358 8 349 353 345 330 339 351 348 153 114 51 329 48 108 183 279 350 360 320 313 338 332 288 301 46 356 288 272 279 279 285 298 299 298 304 308 315 335 358 299 298 305 314 314 302 304 312 314 316 323 330 335 336 332 330 329 327 324 322 321 322 322 321 321
28 106 3 324 22 65 70 43 25 60 63 37 89 98 79 92 82 48 39 114 156 235 236 144 45 34 16 339 327 337 340 335 170 144 128 338 355 143 180 201 24 353 323 354 18 359 288 350 39 318 287 285 282 281 295 305 296 295 301 301 310 327 329 313 302 306 313 306 299 309 315 315 316 323 332 336 333 330 329 326 324 322 320 319 321 322 321 322
58 108 78 333 36 70 52 4 353 61 65 56 91 75 47 82 79 46 322 255 194 176 275 351 35 41 30 306 314 339 344 332 304 108 99 89 299 249 169 161 85 24 11 12 17 5 274 352 15 311 295 293 290 301 316 314 301 294 294 299 317 322 323 320 312 312 311 299 298 309 312 312 317 327 333 332 329 327 326 324 323 322 320 320 322 321 321 322
164 132 126 105 92 72 41 346 302 88 82 37 69 66 29 67 86 105 290 314 338 60 355 343 22 41 202 290 331 40 334 301 292 310 40 95 265 355 41 38 19 22 21 8 349 349 348 350 356 311 297 298 314 325 322 317 311 300 291 348 334 323 328 331 323 321 318 308 308 312 312 311 321 331 329 328 327 326 325 325 325 323 321 321 321 321 322 324
87 109 140 123 94 27 2 42 286 296 76 30 42 75 27 63 66 39 113 13 345 14 357 339 352 217 195 185 7 12 332 309 311 353 28 48 35 26 42 27 355 349 13 10 329 347 358 343 325 326 309 312 334 332 321 317 316 293 286 353 345 337 335 330 326 325 321 316 316 318 317 319 329 330 327 326 327 327 327 326 325 323 321 319 319 322 324 326
97 97 129 101 87 24 346 35 299 4 62 21 31 63 33 72 78 281 208 148 265 25 360 323 310 282 203 151 20 6 6 3 26 46 53 75 73 68 66 53 41 20 10 17 340 354 2 336 330 348 317 306 331 330 315 308 310 244 76 10 358 345 331 323 323 325 322 320 320 320 323 327 329 328 326 326 328 328 326 325 321 319 317 315 318 323 324 325
Height
800 800 800 800 800 800 799 799 798 798 798 797 797 796 796 795 794 794 793 793 793 792 792 792 791 791 790 790 790 789 788 787 788 787 788 791 791 789 788 786 784 782 781 779 778 776 774 773 772 773 772 771 772 773 775 775 776 777 779 783 780 774 778 782 782 784 784 781 778 777 778 783 785 784 781 779 785 788 791 796 797 798 799 801 802 801 798 795
801 801 801 801 801 800 800 799 799 798 798 797 797 797 796 795 795 794 794 793 793 793 793 792 791 791 791 790 790 789 788 787 787 788 790 791 790 788 787 785 783 782 780 779 778 777 774 772 772 772 771 770 772 774 775 776 776 778 778 779 778 777 781 783 783 785 786 786 784 780 780 786 790 790 783 782 791 794 795 800 800 800 801 801 801 800 798 796
801 801 802 801 801 801 800 800 799 799 798 798 797 797 796 796 795 794 794 794 794 794 793 792 791 791 790 790 790 789 789 787 787 789 791 791 789 788 786 784 783 781 780 779 778 777 776 774 773 772 771 771 772 774 776 777 777 777 778 779 779 779 781 783 785 787 788 788 786 782 782 789 793 791 787 786 793 798 800 804 804 804 804 803 802 801 799 797
802 802 802 802 802 801 801 800 799 799 798 798 797 797 796 796 795 795 795 795 795 794 793 792 791 790 789 789 789 790 789 788 790 792 791 790 788 787 785 784 782 781 780 779 779 778 777 775 773 772 772 773 774 774 776 779 779 777 779 781 781 780 781 785 787 789 790 788 787 785 784 791 795 794 792 789 793 801 805 808 809 808 808 806 804 803 801 800
803 803 802 802 802 801 801 800 800 799 798 798 797 797 796 796 796 796 796 796 795 794 793 792 791 790 789 787 788 789 790 792 794 792 790 789 787 786 785 784 782 781 780 779 779 778 777 774 773 773 772 774 775 776 777 779 780 780 780 782 783 783 784 786 787 791 792 788 788 788 789 793 795 797 799 796 799 807 810 810 811 810 809 808 806 805 804 801
803 803 803 803 802 802 801 801 800 800 799 798 798 797 797 797 797 797 797 796 795 794 793 792 791 790 789 788 788 789 790 796 796 792 791 788 787 787 785 784 783 782 780 779 779 776 775 772 772 774 773 774 776 778 780 780 780 782 782 783 785 786 786 787 789 794 793 790 791 791 792 794 796 801 804 803 807 811 812 812 811 811 811 810 809 807 806 804
804 804 804 803 803 802 801 801 801 800 800 799 798 798 798 798 798 798 797 797 796 795 794 793 791 791 790 789 789 789 790 796 796 793 791 788 787 787 785 785 783 783 781 780 778 775 775 773 773 775 774 777 780 780 783 782 781 783 784 785 786 787 787 787 790 793 792 791 792 791 792 795 797 802 805 807 810 811 812 812 812 811 811 810 810 809 807 806
805 805 804 804 803 803 802 802 801 800 800 799 799 799 799 799 799 798 798 797 796 795 794 793 792 791 790 791 789 788 792 797 796 794 791 789 788 787 786 786 784 784 782 781 779 776 776 776 777 777 777 780 782 783 785 784 783 783 786 787 786 787 786 787 789 791 791 791 790 791 794 797 798 801 806 809 811 811 811 811 811 811 810 810 810 809 808 808
805 805 804 804 804 803 803 802 802 801 800 800 800 800 800 800 799 799 798 798 797 795 794 793 792 791 790 790 787 790 798 800 798 795 792 790 789 788 788 787 786 784 783 782 780 778 778 780 780 778 779 782 782 784 785 785 786 786 788 787 785 786 785 786 787 789 791 790 789 792 796 798 798 799 806 811 811 811 811 811 811 810 810 810 810 810 809 808
806 806 805 805 804 804 803 803 802 801 801 801 801 801 801 800 800 800 799 798 797 796 795 794 793 792 791 788 787 795 802 800 798 796 793 792 790 790 789 788 787 785 784 783 782 780 781 782 782 779 779 781 782 785 785 785 787 788 788 787 786 786 785 785 786 788 791 792 790 792 796 799 798 798 804 811 812 811 811 811 811 810 810 810 810 810 810 809
807 806 806 805 805 804 804 803 802 802 802 802 801 801 801 801 800 800 799 798 797 797 795 795 793 792 792 789 791 800 803 800 799 797 794 793 791 790 789 788 787 786 785 784 784 784 783 783 783 781 781 781 782 785 786 787 789 788 788 789 788 786 785 783 785 787 789 792 791 792 798 800 800 801 807 812 811 811 810 810 810 810 810 809 809 810 810 810
807 807 806 806 805 805 804 804 803 803 802 802 802 802 801 801 801 800 800 799 798 797 796 795 794 793 793 792 797 803 802 800 800 797 795 794 792 791 789 789 789 788 786 785 787 786 785 784 782 783 785 783 784 786 788 789 789 788 788 788 786 787 787 782 784 786 786 790 790 792 796 797 802 808 811 813 811 811 810 810 810 809 810 809 809 809 810 811
808 807 807 807 806 805 805 804 804 803 803 802 802 801 802 802 801 801 800 799 798 797 796 795 795 794 793 797 802 804 802 801 800 798 796 794 793 792 791 791 790 789 788 787 788 787 786 785 783 785 786 784 785 789 790 789 789 788 787 784 782 786 786 782 783 783 784 787 788 792 791 791 803 810 811 812 811 810 809 809 810 809 809 809 809 809 809 811
808 808 808 807 806 806 805 805 804 804 803 802 802 802 802 802 801 801 800 799 798 797 796 796 796 794 795 801 804 803 802 801 800 798 796 795 794 793 793 791 790 790 789 789 789 788 788 787 786 786 787 787 788 792 790 788 787 786 787 784 781 785 784 781 785 784 784 785 785 790 787 787 804 810 810 813 810 809 809 809 810 809 810 809 809 809 809 810
809 809 808 807 807 806 806 806 805 804 803 803 802 802 802 802 802 801 800 799 798 797 797 796 796 794 797 801 802 802 802 800 800 799 797 796 794 793 793 792 792 791 790 790 790 789 789 788 787 786 788 789 790 790 787 783 782 781 789 790 785 790 786 780 786 786 786 785 781 787 785 785 802 809 809 812 810 809 809 809 810 810 810 809 809 809 809 810
810 809 809 808 807 807 807 807 806 805 804 803 802 802 802 802 802 801 801 800 798 798 797 797 796 795 800 805 803 802 802 801 801 801 799 797 796 795 794 793 793 792 791 791 790 790 790 788 789 789 788 789 790 785 780 784 786 784 792 796 793 796 791 783 784 785 786 785 781 786 786 784 798 808 810 811 810 809 808 809 810 809 810 809 809 809 809 809
810 810 809 808 808 808 808 808 807 806 805 804 804 803 802 802 801 801 801 800 800 800 798 799 798 795 801 807 806 805 804 804 803 801 800 798 797 796 795 794 793 792 791 791 790 789 789 787 789 791 790 793 794 787 787 800 804 798 798 799 797 798 795 787 784 783 784 786 784 784 784 785 796 806 808 810 809 808 808 808 809 809 809 809 809 809 808 808
811 810 810 809 809 809 809 809 808 806 806 806 805 805 803 803 802 802 802 801 799 799 799 800 798 801 809 809 810 810 808 807 805 802 801 799 797 797 796 794 793 792 790 790 790 788 787 786 786 791 796 799 802 802 807 817 818 813 810 806 803 800 796 791 786 783 785 788 786 781 779 785 797 804 805 808 808 806 807 807 807 807 807 808 808 808 808 808
812 811 811 810 810 809 809 809 808 807 807 806 806 805 804 804 803 804 804 803 803 807 811 812 809 815 821 816 813 813 809 808 806 804 802 800 798 797 796 795 793 792 790 792 794 792 790 791 793 800 807 810 813 816 819 821 819 818 816 813 811 804 795 789 785 785 789 791 786 779 776 780 792 800 803 806 806 805 806 806 806 806 806 807 808 808 808 807
813 812 812 811 810 810 809 809 809 808 807 806 806 805 805 805 807 811 811 809 814 820 823 822 819 819 821 817 815 813 809 808 806 805 803 800 800 797 795 794 793 793 795 799 800 796 794 802 811 816 819 820 819 820 820 819 818 818 815 811 807 801 794 788 785 787 791 793 784 776 777 778 785 794 799 803 804 804 805 805 806 806 806 807 807 808 808 807
813 813 813 812 811 810 810 810 810 809 807 806 806 806 808 808 811 817 818 819 824 824 823 823 821 820 820 819 818 815 813 809 805 805 805 802 799 798 796 794 795 798 801 804 803 797 799 812 824 823 822 822 822 822 820 819 818 817 812 807 802 799 797 789 786 788 790 795 787 775 776 777 779 788 795 799 800 801 803 804 805 806 806 806 807 808 807 806
814 814 813 813 812 812 812 811 810 810 808 807 807 808 811 811 812 814 815 820 826 824 823 823 821 820 820 819 819 816 815 812 806 805 806 803 799 800 801 797 799 803 801 800 801 801 808 821 825 822 823 823 823 821 818 816 815 812 807 806 806 802 799 790 786 790 790 793 787 775 778 775 770 783 792 795 796 799 803 804 805 805 805 806 806 807 807 806
815 815 814 814 813 813 813 812 812 810 809 809 809 810 813 813 813 813 812 816 824 825 823 822 821 821 819 819 819 816 815 816 814 811 809 807 804 806 807 803 804 806 803 802 803 807 817 824 824 824 826 824 820 818 817 813 807 806 807 811 811 806 805 799 789 790 788 787 783 780 783 773 766 781 791 792 796 799 802 803 803 804 805 806 806 805 806 805
816 816 815 815 814 814 813 813 812 811 811 811 812 813 814 814 813 814 813 814 820 824 823 824 822 822 822 822 821 818 817 819 820 817 815 814 811 809 811 814 811 808 813 814 810 816 824 826 825 827 827 822 818 817 821 819 807 805 811 816 814 808 808 804 793 790 784 781 785 787 783 765 763 780 786 789 797 798 800 801 801 802 803 804 804 804 804 803
817 816 816 815 815 814 813 813 813 812 813 813 814 815 814 815 814 814 815 816 822 824 822 824 822 823 825 823 822 821 820 820 822 822 820 819 817 813 814 818 815 814 820 819 814 819 825 828 829 827 823 818 817 819 825 827 814 807 812 815 813 808 806 802 796 794 785 779 783 787 782 764 759 770 774 785 796 796 798 799 799 801 801 803 803 802 802 802
817 817 817 816 815 814 813 814 813 814 814 814 816 815 815 815 814 815 815 816 826 831 826 823 824 826 825 823 821 820 822 823 824 825 822 822 822 819 818 817 816 820 825 823 819 822 825 827 828 824 820 816 818 821 824 828 819 810 811 814 812 808 806 801 797 798 791 780 776 781 785 772 759 759 764 780 791 791 795 797 798 800 800 802 802 801 802 801
818 817 817 816 816 815 813 814 814 815 814 815 816 815 816 815 814 817 817 820 831 835 831 827 827 830 828 827 823 821 829 831 825 824 824 824 823 820 820 820 821 824 830 829 824 826 827 826 826 824 820 819 822 823 823 827 825 814 811 814 810 805 803 798 798 798 788 779 773 772 780 777 763 756 761 776 784 787 793 794 795 799 800 801 801 801 802 800
818 817 817 816 816 815 815 815 815 815 815 816 816 815 816 815 815 817 820 835 844 836 834 833 830 832 831 830 828 828 837 837 830 828 825 825 825 820 821 826 827 825 829 828 824 830 832 830 832 828 823 824 825 824 824 827 825 816 812 813 807 804 802 796 797 795 784 782 778 767 772 778 767 756 760 776 782 782 788 791 795 799 799 800 801 800 801 800
818 818 817 816 816 815 815 815 815 815 815 815 815 816 815 814 817 816 818 840 849 837 837 837 832 836 836 832 832 835 838 837 837 834 827 827 827 823 825 829 829 827 827 824 823 832 835 834 837 833 829 830 828 824 825 826 824 817 812 809 803 798 793 792 796 792 784 786 781 767 770 778 773 758 755 769 776 776 783 791 795 798 799 799 800 800 800 800
818 817 817 816 816 815 815 815 815 815 815 815 815 815 816 816 817 821 830 846 849 842 840 839 840 846 844 838 836 837 840 841 841 836 829 830 828 825 829 830 829 828 826 822 825 833 836 838 839 835 834 833 829 825 823 825 822 816 811 806 799 789 781 786 790 786 785 784 775 770 772 779 783 765 751 767 781 784 790 795 798 799 800 800 800 799 798 798
818 817 817 816 816 816 815 815 814 815 815 815 816 815 816 816 815 828 847 853 848 845 843 844 850 851 850 852 847 842 843 843 842 839 835 833 832 828 829 832 832 826 821 821 826 830 834 836 834 835 837 833 829 823 820 824 821 815 814 809 802 790 780 784 784 784 792 787 775 772 772 780 784 764 757 780 795 797 800 802 804 802 800 800 801 800 799 799
818 818 817 816 816 815 815 814 814 815 815 814 815 815 815 821 828 841 853 852 850 852 853 857 857 853 856 858 854 851 850 846 844 847 846 841 842 845 845 848 849 839 829 829 828 824 827 831 832 836 838 833 832 825 819 822 818 816 818 815 813 806 799 803 798 795 799 790 778 777 780 786 778 761 768 787 793 798 803 804 805 805 803 803 802 801 800 799
819 818 817 816 815 814 814 814 814 814 815 815 815 814 815 826 845 858 856 851 856 861 863 865 860 856 858 854 852 855 854 851 848 848 850 845 846 854 856 857 859 853 843 837 834 830 827 829 830 833 835 833 833 830 827 826 822 823 825 825 829 827 831 834 818 809 808 794 783 783 789 790 775 766 777 786 790 799 802 802 804 805 805 804 802 800 798 796
820 818 818 817 815 815 814 814 815 814 815 815 814 814 822 837 855 866 860 855 862 865 864 867 863 857 856 853 856 858 853 852 851 849 848 844 847 854 855 856 860 859 852 843 843 844 838 833 830 831 832 833 834 836 839 834 828 828 826 829 835 836 845 846 828 823 823 806 793 790 791 788 777 776 785 788 793 798 797 799 803 803 803 802 801 799 798 797
821 820 819 817 816 816 815 815 815 814 815 815 814 819 834 849 856 859 860 861 864 865 863 867 865 854 850 852 858 861 859 855 851 850 851 851 854 859 860 862 864 864 860 851 849 851 843 832 831 833 834 835 836 839 841 836 831 827 822 829 839 838 842 841 830 827 826 816 804 793 786 778 774 782 790 793 794 793 795 798 800 802 803 803 802 800 799 797
822 820 819 818 818 817 816 816 814 815 816 813 818 834 849 860 860 859 867 870 870 871 866 863 862 853 848 851 853 858 863 859 852 849 853 858 861 864 865 867 869 871 870 862 856 857 852 836 828 834 836 836 838 838 838 839 836 830 829 838 842 838 840 842 834 824 824 824 808 793 788 781 778 784 789 793 792 790 795 799 800 801 803 804 804 801 799 797
822 821 820 820 819 818 817 816 814 816 815 813 828 852 863 868 871 870 874 876 876 878 866 856 860 863 858 855 854 858 861 858 853 848 849 857 863 868 870 870 874 876 875 873 864 863 867 850 829 831 835 836 841 841 838 840 839 836 842 847 843 838 837 841 843 836 835 834 813 799 801 796 792 789 786 789 791 794 800 802 802 802 802 805 805 802 801 797
822 822 821 820 820 819 817 816 817 815 814 823 846 864 867 870 875 877 879 880 880 877 865 857 864 868 864 860 859 864 864 857 853 850 851 856 863 873 877 875 877 875 876 880 870 864 872 858 833 831 836 834 839 841 838 839 839 840 845 847 849 854 850 845 851 854 855 847 824 810 808 802 797 793 792 796 797 801 805 802 803 805 806 807 804 801 800 795
823 822 822 823 822 820 818 817 818 814 816 835 855 863 867 873 879 883 885 884 881 874 866 866 870 867 866 866 864 866 868 864 859 855 856 859 866 877 884 881 880 877 877 879 873 867 870 862 844 835 832 829 829 832 835 836 839 841 842 842 849 859 859 854 856 859 861 853 833 822 816 804 797 797 802 805 802 805 805 802 806 810 808 808 805 800 797 792
823 822 825 825 822 822 821 818 817 821 833 849 858 863 870 875 881 888 892 889 883 876 870 870 872 868 867 869 869 870 870 868 865 861 860 865 869 879 890 892 889 886 881 878 876 873 866 860 851 837 828 827 828 833 838 840 842 844 845 848 855 859 857 857 854 849 855 855 843 838 828 807 798 803 805 804 803 806 807 806 811 812 810 808 804 799 794 790
822 825 827 826 824 823 821 821 830 840 849 857 861 868 875 876 880 888 894 894 888 882 879 876 873 872 871 869 870 873 871 867 865 864 865 870 872 879 894 902 898 895 887 875 874 877 871 862 855 844 835 830 831 837 844 846 848 849 850 852 859 864 864 867 862 849 851 855 848 848 838 812 802 805 804 804 807 808 810 812 814 813 811 807 802 798 794 789
824 829 831 827 825 824 823 833 848 852 854 863 870 875 880 879 881 885 890 894 889 883 883 881 877 876 875 873 872 873 873 869 866 867 870 875 880 886 897 904 902 899 893 879 873 881 883 871 859 850 839 833 838 846 849 851 851 852 855 856 858 863 868 877 876 860 857 857 849 850 841 812 800 805 807 809 812 812 815 817 816 814 810 804 799 796 792 787
829 832 832 828 826 824 827 842 857 859 865 877 880 881 884 881 881 883 885 886 885 882 880 878 879 879 878 879 877 873 874 873 871 872 873 876 887 897 901 902 900 895 891 885 879 882 882 870 859 851 838 833 842 849 851 853 852 848 849 853 859 867 872 877 876 868 868 865 856 857 844 810 800 809 813 814 814 815 819 820 818 813 806 802 798 793 789 785
833 833 832 830 825 823 830 844 856 863 873 878 878 881 885 884 883 883 882 883 883 882 878 877 881 881 880 884 882 876 876 876 874 876 877 878 889 902 903 901 899 894 893 895 892 889 879 865 862 865 857 847 844 846 847 850 850 847 845 851 862 872 877 877 872 869 870 864 859 865 850 814 804 814 817 817 818 818 822 821 817 810 803 799 796 790 786 782
833 834 834 833 828 829 840 850 854 862 873 874 875 880 880 882 888 887 884 885 887 885 880 880 884 884 882 884 882 878 878 877 876 880 882 882 890 900 901 901 899 895 898 903 903 899 884 868 870 882 885 877 866 860 856 852 852 851 849 853 861 872 880 877 873 873 871 862 862 869 852 818 809 818 820 820 822 823 823 820 814 808 802 797 793 787 782 778
833 837 839 839 838 841 851 857 854 860 869 869 872 879 878 878 886 891 888 886 887 888 884 882 885 884 881 880 878 875 875 877 878 881 884 884 888 896 900 901 899 897 900 903 903 900 885 871 878 889 893 889 879 870 863 859 861 859 856 856 860 871 881 880 879 879 874 867 862 858 847 827 817 821 823 823 825 825 822 817 811 805 800 795 791 785 780 776
836 845 851 848 847 849 854 859 859 862 866 865 870 880 880 877 881 886 888 886 887 889 885 882 884 881 879 878 876 873 873 874 877 884 890 890 889 894 899 900 897 897 900 898 898 896 883 876 888 899 897 890 882 874 866 863 864 860 859 861 861 868 879 884 887 882 876 875 860 841 839 837 827 824 826 827 827 825 820 816 810 803 797 793 788 783 778 774
841 852 859 855 854 856 857 862 867 867 867 868 875 882 880 878 880 882 884 886 887 888 884 880 882 882 883 882 878 876 876 873 875 885 894 894 893 893 894 897 897 896 896 894 896 899 890 883 895 904 899 890 880 870 864 862 862 859 859 863 863 868 877 882 883 878 876 878 863 841 839 841 831 827 829 831 830 826 820 816 810 804 796 790 785 780 777 772
847 852 860 860 861 867 870 872 871 869 869 870 876 881 879 877 881 884 886 885 882 884 882 878 880 884 885 885 880 880 882 879 878 887 894 897 897 894 891 895 896 894 895 895 899 904 896 886 896 906 899 887 874 865 862 862 860 857 859 864 869 872 876 878 877 873 872 871 862 851 847 841 834 833 833 832 830 826 821 816 810 804 796 788 782 777 774 771
844 846 855 858 862 872 876 876 872 866 867 868 871 880 883 878 880 885 888 886 879 879 881 879 881 887 888 887 883 883 888 887 885 891 896 896 897 895 894 898 899 896 898 901 902 902 895 890 897 904 897 880 866 862 862 860 859 858 860 867 874 875 876 877 875 870 868 864 858 855 852 843 837 836 834 833 830 825 821 816 809 802 793 785 780 774 770 768
840 842 846 848 861 874 874 873 872 864 864 869 873 881 884 880 883 885 885 889 886 882 883 883 883 887 890 889 887 888 893 894 893 897 900 899 899 900 900 902 903 901 901 905 907 903 900 897 895 899 897 878 864 864 862 856 861 867 869 873 879 879 878 877 875 872 870 864 857 854 852 845 838 835 833 832 830 825 821 816 810 803 794 786 779 774 770 767
842 844 843 843 859 876 874 870 868 864 870 881 883 886 886 885 890 889 883 887 891 890 891 890 887 886 885 887 892 897 900 902 903 904 904 902 902 904 905 906 907 906 904 906 907 903 905 903 895 899 900 880 867 872 864 854 860 869 873 879 882 881 877 873 872 873 871 867 862 857 852 845 838 836 832 828 827 827 822 816 812 806 799 791 784 779 775 771